TimeAKST,TemperatureF,Dew PointF,Humidity,Sea Level PressureIn,VisibilityMPH,Wind Direction,Wind SpeedMPH,Gust SpeedMPH,PrecipitationIn,Events,Conditions,WindDirDegrees,DateUTC
12:53 AM,39.0,39.0,100,29.76,6.0,SE,17.3,-,0.13,Rain,Rain,130,2013-02-12 09:53:00
1:28 AM,39.2,39.2,100,29.75,6.0,SE,19.6,26.5,0.06,Rain,Light Rain,130,2013-02-12 10:28:00
1:53 AM,39.9,39.9,100,29.74,6.0,SE,15.0,23.0,0.09,Rain,Light Rain,140,2013-02-12 10:53:00
2:08 AM,41.0,41.0,100,29.73,7.0,SE,16.1,-,0.01,Rain,Light Rain,140,2013-02-12 11:08:00
2:10 AM,41.0,41.0,100,29.73,7.0,SE,16.1,-,0.02,Rain,Light Rain,140,2013-02-12 11:10:00
2:12 AM,41.0,41.0,100,29.73,7.0,SE,16.1,-,0.02,Rain,Light Rain,140,2013-02-12 11:12:00
2:31 AM,41.0,41.0,100,29.72,6.0,SE,16.1,-,0.04,Rain,Light Rain,140,2013-02-12 11:31:00
3:27 AM,42.8,42.8,100,29.68,6.0,SE,13.8,21.9,0.04,Rain,Rain,140,2013-02-12 12:27:00
3:53 AM,42.1,42.1,100,29.68,8.0,SE,12.7,-,0.07,Rain,Light Rain,140,2013-02-12 12:53:00
4:53 AM,42.1,42.1,100,29.65,6.0,SE,12.7,-,0.10,Rain,Rain,130,2013-02-12 13:53:00
5:02 AM,42.8,42.8,100,29.65,7.0,SE,11.5,-,0.02,Rain,Rain,130,2013-02-12 14:02:00
5:53 AM,43.0,43.0,100,29.64,6.0,SE,4.6,-,0.09,Rain,Rain,130,2013-02-12 14:53:00
5:56 AM,42.8,42.8,100,29.63,6.0,SE,3.5,-,0.00,Rain,Light Rain,140,2013-02-12 14:56:00
6:53 AM,42.1,42.1,100,29.62,6.0,SE,6.9,-,0.12,Rain,Light Rain,130,2013-02-12 15:53:00
7:53 AM,39.0,39.0,100,29.61,10.0,WNW,6.9,-,0.05,Rain,Light Rain,300,2013-02-12 16:53:00
8:53 AM,37.9,37.9,100,29.63,10.0,NW,9.2,-,0.04,Rain,Light Rain,320,2013-02-12 17:53:00
9:53 AM,37.0,37.0,100,29.66,10.0,WNW,9.2,-,0.02,Rain,Light Rain,300,2013-02-12 18:53:00
10:53 AM,37.9,37.9,100,29.69,10.0,WNW,10.4,-,0.00,,Overcast,300,2013-02-12 19:53:00
11:53 AM,37.9,37.9,100,29.73,10.0,NW,11.5,-,N/A,,Overcast,320,2013-02-12 20:53:00
12:53 PM,39.9,37.9,93,29.78,10.0,NW,10.4,18.4,N/A,,Overcast,310,2013-02-12 21:53:00
1:53 PM,39.0,37.0,93,29.83,10.0,WNW,12.7,-,0.00,,Overcast,300,2013-02-12 22:53:00
2:53 PM,39.9,35.1,83,29.88,10.0,NW,11.5,19.6,N/A,,Mostly Cloudy,310,2013-02-12 23:53:00
3:53 PM,39.0,34.0,82,29.94,10.0,NW,10.4,-,N/A,,Mostly Cloudy,310,2013-02-13 00:53:00
4:53 PM,39.0,35.1,86,29.99,10.0,NW,6.9,-,N/A,,Mostly Cloudy,310,2013-02-13 01:53:00
5:53 PM,39.0,33.1,79,30.03,10.0,Variable,6.9,-,N/A,,Overcast,0,2013-02-13 02:53:00
6:53 PM,37.9,33.1,83,30.06,10.0,WNW,5.8,-,N/A,,Mostly Cloudy,300,2013-02-13 03:53:00
7:53 PM,37.0,34.0,89,30.10,10.0,Calm,Calm,-,N/A,,Mostly Cloudy,0,2013-02-13 04:53:00
8:53 PM,37.9,32.0,79,30.13,10.0,Calm,Calm,-,N/A,,Overcast,0,2013-02-13 05:53:00
9:53 PM,36.0,32.0,86,30.16,10.0,Calm,Calm,-,N/A,,Scattered Clouds,0,2013-02-13 06:53:00
10:53 PM,37.0,32.0,82,30.19,10.0,Calm,Calm,-,N/A,,Overcast,0,2013-02-13 07:53:00
11:53 PM,37.0,34.0,89,30.21,10.0,SE,4.6,-,N/A,,Overcast,140,2013-02-13 08:53:00